Regional Weather Roundup
Issued by NWS

Home | Current Version | Previous Version | Text Only | Print | Product List | Glossary On
Versions: 1 2 3 4 5 6 7 8 9 10 11 12 13 14 15 16 17 18 19 20 21 22 23 24 25 26 27 28 29 30 31 32 33 34 35 36 37 38 39 40 41 42 43 44 45 46 47 48 49 50
000
ASUS44 KMEG 051310
RWRTN
TENNESSEE HOURLY STATE WEATHER ROUNDUP
NATIONAL WEATHER SERVICE MEMPHIS TN
800 AM CDT WED AUG 05 2015

TNZ002-004-019-021-049-052-054-088>092-051400-
WEST TENNESSEE

CITY           SKY/WX    TMP DP  RH WIND       PRES   REMARKS
MEMPHIS INTL   CLOUDY    84  71  65 W6        29.98R
NWS MEMPHIS      N/A     81 N/A N/A MISG        N/A
JACKSON        CLOUDY    79  71  76 S3        29.99S
DYERSBURG        N/A    N/A N/A N/A MISG        N/A
UNION CITY     MOSUNNY  N/A N/A N/A NW12      30.00R
PARIS          SUNNY     77  72  83 S5        30.00S
LEXINGTON      SUNNY     77  73  88 CALM      30.00S
$$

TNZ008-025-027-028-033-062-065-066-051400-
NORTH MIDDLE TENNESSEE

CITY           SKY/WX    TMP DP  RH WIND       PRES   REMARKS
NASHVILLE      MOSUNNY   81  72  74 CALM      30.02S
CLARKSVILLE    CLOUDY    76  71  85 SE3       30.01R
SMYRNA         MOSUNNY   78  74  87 VRB3      30.03S
COOKEVILLE     SUNNY     75  73  94 E3        30.05S
CROSSVILLE     PTSUNNY   74  69  85 CALM      30.11R
$$

TNZ061-075-076-078-094-096-097-051400-
SOUTH MIDDLE TENNESSEE

CITY           SKY/WX    TMP DP  RH WIND       PRES   REMARKS
FAYETTEVILLE     N/A     79  70  73 CALM      30.05R
TULLAHOMA      SUNNY     79  70  73 CALM      30.06S
WINCHESTER     SUNNY     75  72  88 CALM      30.05S
MCMINNVILLE    SUNNY     79  77  94 SE5G199   30.05S
COLUMBIA       SUNNY     79  79 100 CALM      30.01S
SHELBYVILLE    SUNNY     79  73  83 CALM      30.04R
$$

TNZ017-018-042-046-047-051400-
NORTHEAST TENNESSEE

CITY           SKY/WX    TMP DP  RH WIND       PRES   REMARKS
TRI CITIES     CLOUDY    68  66  93 CALM      30.12R FOG
ELIZABETHTON   SUNNY     68  63  83 CALM      30.12S
$$

TNZ012-013-036-069-073-074-051400-
CENTRAL EAST TENNESSEE

CITY           SKY/WX    TMP DP  RH WIND       PRES   REMARKS
KNOXVILLE      PTSUNNY   74  66  76 E3        30.07R
OAK RIDGE      CLOUDY    75  69  81 CALM      30.09R
GATLINBURG     SUNNY     73  66  78 CALM      30.08R
MORRISTOWN     SUNNY     73  68  83 NE3       30.11R
$$

TNZ083-085-099-051400-
SOUTHEAST TENNESSEE

CITY           SKY/WX    TMP DP  RH WIND       PRES   REMARKS
CHATTANOOGA    CLOUDY    78  71  79 N5        30.05R
$$

SKY/WX REPORTED AS FAIR MEANS FEW OR NO CLOUDS BELOW
12 THOUSAND FEET.



USA.gov is the U.S. government's official web portal to all federal, state and local government web resources and services.